Location: Seagrave Observatory
(41.8500°N, 71.5833°W)
Time: 21:23:49
(UTC-04:00)

Daily predictions for brighter satellites

Satellite Brightness Start Highest point End
(mag) Time Altitude Azimuth Time Altitude Azimuth Time Altitude Azimuth
BREEZE-M DEB (TANK) 4.0 19:52:08 10° WNW 19:55:51 60° N 20:08:53 10° E
Cosmos 1242 Rocket 3.4 20:02:20 10° SSW 20:05:58 57° WNW 20:09:35 10° N
HJ-1C 4.2 20:02:39 10° S 20:06:03 57° W 20:09:29 10° NNW
Cosmos 1486 Rocket 4.3 20:02:07 10° N 20:07:12 50° ENE 20:12:17 10° SE
Meteor 1-27 4.3 20:02:34 10° S 20:08:11 89° W 20:13:48 10° N
CENTAUR R/B 3.0 20:05:22 10° SW 20:11:23 70° NW 20:18:17 10° NNE
Cosmos 1408 4.1 20:09:56 10° NNE 20:12:45 20° ENE 20:15:31 10° ESE
Gblst 52 Del rocket 4.4 20:06:59 10° WNW 20:12:55 71° SW 20:18:23 10° SE
ERBS 3.5 20:13:08 10° NNW 20:16:18 32° NE 20:19:22 11° ESE
Cosmos 1455 2.1 20:13:26 10° S 20:17:12 66° E 20:20:58 10° NNE
Cosmos 1869 3.8 20:16:59 10° SSE 20:20:37 37° E 20:24:17 10° NNE
Cosmos 1697 Rocket 3.5 20:16:35 10° SW 20:22:08 58° WNW 20:27:43 10° NNE
SeaSat 1 4.3 20:21:03 10° E 20:24:09 17° NE 20:27:15 10° N
ATLAS CENTAUR R/B 3.1 20:23:44 10° WNW 20:26:07 30° SW 20:31:04 10° SSE
Cosmos 1400 Rocket 3.5 20:23:17 10° NNW 20:27:07 56° W 20:30:57 10° S
Cosmos 2297 Rocket 4.3 20:24:57 10° NW 20:29:31 26° WSW 20:34:05 10° SSW
Nadezhda 4 Rocket 4.3 20:23:31 10° NNW 20:29:45 73° W 20:36:01 10° S
OTV 4 2.8 20:28:40 10° SW 20:30:13 14° SSW 20:31:46 10° S
ALOS 4.3 20:28:12 10° SSW 20:32:17 30° W 20:36:24 10° NW
DELTA 2 R/B (1) 4.3 20:28:12 10° W 20:33:30 43° SSW 20:37:59 14° SE
Cosmos 1892 3.6 20:30:02 10° NNW 20:33:43 50° W 20:37:24 10° S
Cosmos 1634 Rocket 4.0 20:30:43 10° S 20:36:56 70° E 20:43:15 10° NNE
Cosmos 1503 Rocket 4.3 20:33:12 10° N 20:38:20 49° ENE 20:42:25 15° SE
Cosmos 1092 Rocket 4.1 20:32:07 10° N 20:38:29 87° W 20:44:50 10° S
Intercosmos 25 Rocket 3.6 20:35:34 10° SSE 20:38:29 36° E 20:41:56 10° NNE
Cosmos 2263 Rocket 3.2 20:34:06 10° N 20:39:01 31° NE 20:42:39 16° ESE
Cosmos 1315 Rocket 2.9 20:35:23 10° NNW 20:39:29 81° W 20:43:30 10° S
Cosmos 1655 Rocket 4.4 20:34:05 10° N 20:40:15 47° ENE 20:45:52 12° SSE
Cosmos 1933 4.5 20:38:53 16° SE 20:40:56 24° E 20:44:13 10° NE
Cosmos 1354 Rocket 4.3 20:36:28 10° N 20:41:39 53° ENE 20:45:44 16° SE
Cosmos 2322 Rocket 2.4 20:37:26 10° S 20:42:43 45° ESE 20:48:03 10° NE
USA 186 2.4 20:40:30 10° S 20:43:03 45° W 20:45:48 10° NNW
H-2A R/B 4.0 20:43:26 10° E 20:45:22 12° ENE 20:47:18 10° NE
Cosmos 1707 Rocket 3.9 20:42:58 10° SSW 20:47:23 68° W 20:51:49 10° N
YAOGAN 6 3.4 20:45:47 21° ESE 20:47:38 34° ENE 20:50:56 10° N
Abrixas rocket 2.5 20:45:40 10° WSW 20:48:56 66° NNW 20:52:12 10° ENE
Meteor 2-20 Rocket 4.4 20:47:46 10° N 20:53:55 77° E 21:00:02 10° SSE
Cosmos 2360 Rocket 3.3 20:52:40 20° ESE 20:54:05 22° E 20:58:17 10° NE
Cosmos 1980 Rocket 3.1 20:49:07 10° SW 20:54:39 53° WNW 21:00:14 10° NNE
Cosmos 1733 Rocket 3.4 20:50:21 10° N 20:54:41 48° ENE 20:57:20 21° SE
Helios 1B rocket 2.7 20:54:15 10° N 20:58:20 72° WNW 21:02:25 10° SSW
Cosmos 1862 Rocket 3.8 20:56:58 16° SSE 21:00:20 47° E 21:04:38 10° NNE
Meteor 1-29 3.0 20:56:50 10° N 21:00:20 79° WNW 21:03:47 10° SSW
Lacrosse 4 Rocket 1.6 20:56:46 10° NNW 21:01:03 62° ENE 21:03:17 27° SE
Cosmos 1825 2.1 21:02:10 10° N 21:05:59 89° WSW 21:08:24 21° S
Cosmos 1862 3.3 21:02:28 10° N 21:06:28 61° E 21:08:23 29° SSE
Envisat 3.3 21:03:03 10° S 21:08:06 67° WSW 21:13:10 10° NNW
SL-16 R/B 2.1 21:03:56 10° SSW 21:09:34 75° ESE 21:15:15 10° NNE
Cosmos 1939 Rocket 3.2 21:09:41 15° S 21:12:55 64° WSW 21:16:57 10° NNW
Cosmos 2242 Rocket 3.8 21:09:12 10° SSW 21:13:43 74° W 21:18:14 10° N
Milstar 3 3.9 21:08:46 10° WSW 21:14:51 26° S 21:17:22 21° SSE
SPOT 5 3.5 21:15:36 29° ESE 21:17:11 38° ENE 21:21:32 10° N
CZ-4B DEB 4.2 21:15:52 15° SSW 21:17:56 33° W 21:20:46 10° NNW
Cosmos 2279 Rocket 3.9 21:13:11 10° S 21:19:26 87° E 21:25:42 10° N
ATLAS 5 CENTAUR R/B 3.0 21:15:42 10° NNW 21:21:20 43° NE 21:24:21 27° E
MetOp-B 4.3 21:21:51 32° SE 21:24:13 58° ENE 21:29:29 10° N
USA 234 3.6 21:20:01 22° SSE 21:24:15 57° SW 21:30:43 10° NW
OAO 3 Rocket 3.8 21:24:12 10° WSW 21:28:44 37° S 21:29:18 36° SSE
Resurs 01 Rocket 4.5 21:27:27 10° WSW 21:29:34 13° W 21:31:43 10° WNW
SPOT 1/Viking Rocket 4.2 21:30:50 33° E 21:32:07 39° ENE 21:36:56 10° N
ARGOS 3.4 21:30:20 36° ESE 21:32:08 52° ENE 21:37:21 10° N
Atlas Centaur 2 3.7 21:27:07 10° SW 21:33:24 29° SSE 21:34:13 28° SSE
MOS 1-B Rocket 4.1 21:35:42 36° SE 21:37:57 56° ENE 21:43:29 10° N
Cosmos 1844 Rocket 4.1 21:38:20 10° N 21:42:46 24° NE 21:44:04 22° ENE
ERS-1 Rocket 3.3 21:42:12 28° S 21:44:45 62° WSW 21:49:45 10° NNW
ERBS 4.1 21:50:01 10° WNW 21:52:42 25° WSW 21:52:42 25° WSW
Sich 1 Rocket 3.5 21:48:51 10° N 21:53:20 89° W 21:53:57 66° S
Meteor 1-14 Rocket 4.1 21:52:40 10° N 21:58:19 75° E 21:59:36 54° SSE
Cosmos 2219 Rocket 4.3 22:03:40 13° ENE 22:03:40 13° ENE 22:04:28 10° NE
SeaSat 1 2.4 22:00:11 60° S 22:01:05 81° WSW 22:06:04 10° NNW
H-2A R/B 3.0 22:07:13 35° NE 22:07:13 35° NE 22:10:28 10° N
USA 229 DEB 3.6 22:04:47 39° S 22:07:10 59° ESE 22:13:58 10° NE
USA 229 3.6 22:05:03 41° S 22:07:16 59° ESE 22:14:03 10° NE
USA 245 4.4 22:08:35 45° S 22:10:25 72° WSW 22:15:45 10° NNW
Cosmos 1908 Rocket 3.9 22:06:26 10° NNW 22:10:41 56° W 22:11:04 54° WSW
Landsat 7 4.0 22:11:17 56° ENE 22:11:17 56° ENE 22:15:42 10° N
Cosmos 2237 4.3 22:13:31 57° E 22:13:31 57° E 22:18:42 10° NNE
Meteor 1-25 Rocket 4.0 22:12:18 10° N 22:17:56 80° E 22:18:23 73° SE
DMSP B5D2-2 4.5 22:13:10 10° NNE 22:17:32 49° ENE 22:17:32 49° ENE
COSMOS 2428 3.3 22:23:05 42° ENE 22:23:05 42° ENE 22:27:14 10° NNE
Cosmos 1867 3.4 22:16:57 10° NNW 22:22:26 86° WSW 22:22:40 82° S
Cosmos 2263 Rocket 3.1 22:17:52 10° NW 22:23:01 39° WSW 22:24:23 34° SW
H-2A R/B 1.8 22:24:03 86° SW 22:24:06 86° WSW 22:29:06 10° NNW
Cosmos 1782 Rocket 3.9 22:20:16 10° NNW 22:24:09 63° NW 22:24:09 63° NW
Okean 2 Rocket 3.4 22:20:23 10° N 22:24:13 63° N 22:24:13 63° N
Terra 2.3 22:26:53 50° NE 22:26:53 50° NE 22:30:50 10° N
Cosmos 2322 Rocket 4.1 22:22:11 10° WSW 22:26:56 28° NW 22:31:44 10° N
Cosmos 2360 Rocket 2.8 22:34:16 23° SW 22:37:38 54° WNW 22:43:13 10° NNE
Lacrosse 4 Rocket 4.0 22:37:14 10° WNW 22:39:16 13° WSW 22:39:39 13° WSW
Meteor 1-20 Rocket 4.2 22:34:32 10° NNW 22:40:05 76° W 22:40:13 75° WSW
Cosmos 1844 4.2 22:36:36 10° NNW 22:41:50 50° NE 22:41:50 50° NE
Cosmos 2322 4.2 22:40:41 34° SW 22:43:02 57° WNW 22:48:41 10° NNE
Cosmos 968 Rocket 4.4 22:41:27 10° NW 22:46:15 39° WSW 22:46:23 39° WSW
Geosat 4.2 22:43:34 10° NNE 22:47:59 66° N 22:47:59 66° N
Meteor 2-6 Rocket 4.3 22:49:28 75° NE 22:49:28 75° NE 22:55:01 10° NNE
ASTEX 1 3.9 22:50:52 58° N 22:50:52 58° N 22:54:53 10° N
Okean 1-7 4.4 22:55:18 36° WNW 22:55:18 36° WNW 22:58:57 10° N
CZ-4C R/B 3.7 22:51:26 10° NNW 22:57:59 41° NE 22:59:44 36° ENE
Cosmos 2333 Rocket 3.5 23:04:54 31° NE 23:04:54 31° NE 23:07:58 10° NE
Cosmos 2333 4.5 23:05:38 65° N 23:05:38 65° N 23:10:35 10° NNE
ATLAS 5 CENTAUR R/B 3.3 23:00:28 10° NW 23:05:54 39° WSW 23:05:54 39° WSW
Cosmos 2237 Rocket 3.8 23:14:49 25° NE 23:14:49 25° NE 23:17:19 10° NE
Cosmos 2278 Rocket 2.9 23:09:44 10° NNW 23:14:18 46° NNE 23:14:18 46° NNE
Meteor 1-27 Rocket 4.2 23:19:30 56° N 23:19:30 56° N 23:23:52 10° N
Cosmos 1553 Rocket 4.1 23:23:21 72° NW 23:23:21 72° NW 23:29:10 10° N
Cosmos 1844 Rocket 3.5 23:21:34 10° NNW 23:25:44 45° WNW 23:25:44 45° WNW
CZ-2C R/B 4.4 23:33:30 10° NNE 23:35:56 24° NE 23:35:56 24° NE
Cosmos 2219 Rocket 3.0 23:45:20 47° NNW 23:45:20 47° NNW 23:49:36 10° NNE
